Time,TemperatureF,DewpointF,PressureIn,WindDirection,WindDirectionDegrees,WindSpeedMPH,WindSpeedGustMPH,Humidity,HourlyPrecipIn,Conditions,Clouds,dailyrainin,SoftwareType,DateUTC
2013-02-12 00:02:00,38.1,23.9,29.04,WSW,248,0.0,5.0,56,0.00,,,0.00,meteohub,2013-02-12 06:02:00,
2013-02-12 00:07:00,38.1,23.9,29.04,WNW,292,0.0,5.0,56,0.00,,,0.00,meteohub,2013-02-12 06:07:00,
2013-02-12 00:12:00,37.9,24.1,29.04,West,270,6.0,6.0,57,0.00,,,0.00,meteohub,2013-02-12 06:12:00,
2013-02-12 00:17:00,37.6,23.4,29.04,SW,225,0.0,6.0,56,0.00,,,0.00,meteohub,2013-02-12 06:17:00,
2013-02-12 00:22:00,37.6,23.7,29.04,WSW,248,5.0,9.0,57,0.00,,,0.00,meteohub,2013-02-12 06:22:00,
2013-02-12 00:27:00,37.4,23.5,29.04,West,270,4.0,9.0,57,0.00,,,0.00,meteohub,2013-02-12 06:27:00,
2013-02-12 00:32:00,37.2,23.4,29.04,NW,315,4.0,9.0,57,0.00,,,0.00,meteohub,2013-02-12 06:32:00,
2013-02-12 00:37:00,37.0,23.2,29.04,WSW,248,4.0,9.0,57,0.00,,,0.00,meteohub,2013-02-12 06:37:00,
2013-02-12 00:42:00,36.9,23.2,29.04,West,270,0.0,6.0,57,0.00,,,0.00,meteohub,2013-02-12 06:42:00,
2013-02-12 00:47:00,36.9,23.2,29.04,West,270,6.0,6.0,57,0.00,,,0.00,meteohub,2013-02-12 06:47:00,
2013-02-12 00:52:00,36.7,23.0,29.04,SW,225,3.0,6.0,57,0.00,,,0.00,meteohub,2013-02-12 06:52:00,
2013-02-12 00:57:00,36.7,23.0,29.01,SSW,202,4.0,6.0,57,0.00,,,0.00,meteohub,2013-02-12 06:57:00,
2013-02-12 01:02:00,36.7,23.4,29.01,SW,225,6.0,10.0,58,0.00,,,0.00,meteohub,2013-02-12 07:02:00,
2013-02-12 01:07:00,36.5,23.2,29.04,SW,225,0.0,10.0,58,0.00,,,0.00,meteohub,2013-02-12 07:07:00,
2013-02-12 01:12:00,36.3,23.0,29.04,WSW,248,4.0,11.0,58,0.00,,,0.00,meteohub,2013-02-12 07:12:00,
2013-02-12 01:18:00,36.3,22.6,29.04,WNW,292,8.0,11.0,57,0.00,,,0.00,meteohub,2013-02-12 07:18:00,
2013-02-12 01:23:00,36.3,22.6,29.04,SW,225,0.0,11.0,57,0.00,,,0.00,meteohub,2013-02-12 07:23:00,
2013-02-12 01:28:00,36.1,22.5,29.04,NW,315,4.0,9.0,57,0.00,,,0.00,meteohub,2013-02-12 07:28:00,
2013-02-12 01:33:00,36.0,22.3,29.04,SSW,202,1.0,8.0,57,0.00,,,0.00,meteohub,2013-02-12 07:33:00,
2013-02-12 01:38:00,35.8,22.1,29.04,WSW,248,5.0,10.0,57,0.00,,,0.00,meteohub,2013-02-12 07:38:00,
2013-02-12 01:43:00,35.8,22.1,29.04,WSW,248,7.0,10.0,57,0.00,,,0.00,meteohub,2013-02-12 07:43:00,
2013-02-12 01:48:00,35.8,22.1,29.04,SW,225,1.0,10.0,57,0.00,,,0.00,meteohub,2013-02-12 07:48:00,
2013-02-12 01:53:00,35.8,22.5,29.04,WNW,292,0.0,9.0,58,0.00,,,0.00,meteohub,2013-02-12 07:53:00,
2013-02-12 01:58:00,35.6,22.3,29.04,SW,225,4.0,8.0,58,0.00,,,0.00,meteohub,2013-02-12 07:58:00,
2013-02-12 02:03:00,35.6,22.6,29.04,SSW,202,4.0,8.0,59,0.00,,,0.00,meteohub,2013-02-12 08:03:00,
2013-02-12 02:08:00,35.6,22.6,29.04,West,270,4.0,7.0,59,0.00,,,0.00,meteohub,2013-02-12 08:08:00,
2013-02-12 02:13:00,35.4,22.6,29.04,West,270,2.0,8.0,59,0.00,,,0.00,meteohub,2013-02-12 08:13:00,
2013-02-12 02:19:00,35.4,22.6,29.04,WNW,292,5.0,11.0,59,0.00,,,0.00,meteohub,2013-02-12 08:19:00,
2013-02-12 02:24:00,35.2,21.9,29.04,NW,315,9.0,11.0,58,0.00,,,0.00,meteohub,2013-02-12 08:24:00,
2013-02-12 02:29:00,35.1,21.7,29.04,SW,225,0.0,9.0,58,0.00,,,0.00,meteohub,2013-02-12 08:29:00,
2013-02-12 02:34:00,35.1,21.4,29.04,NW,315,0.0,10.0,57,0.00,,,0.00,meteohub,2013-02-12 08:34:00,
2013-02-12 02:39:00,35.1,21.0,29.04,NW,315,4.0,10.0,56,0.00,,,0.00,meteohub,2013-02-12 08:39:00,
2013-02-12 02:44:00,35.1,21.4,29.04,WSW,248,2.0,11.0,57,0.00,,,0.00,meteohub,2013-02-12 08:44:00,
2013-02-12 02:49:00,35.1,21.7,29.04,SW,225,3.0,11.0,58,0.00,,,0.00,meteohub,2013-02-12 08:49:00,
2013-02-12 02:54:00,35.1,21.7,29.04,SW,225,0.0,11.0,58,0.00,,,0.00,meteohub,2013-02-12 08:54:00,
2013-02-12 02:59:00,34.9,22.5,29.04,NW,315,2.0,5.0,60,0.00,,,0.00,meteohub,2013-02-12 08:59:00,
2013-02-12 03:04:00,34.9,22.5,29.04,West,270,0.0,5.0,60,0.00,,,0.00,meteohub,2013-02-12 09:04:00,
2013-02-12 03:09:00,34.9,22.5,29.07,WNW,292,3.0,6.0,60,0.00,,,0.00,meteohub,2013-02-12 09:09:00,
2013-02-12 03:15:00,34.9,22.5,29.07,WSW,248,3.0,6.0,60,0.00,,,0.00,meteohub,2013-02-12 09:15:00,
2013-02-12 03:20:00,34.7,21.9,29.07,West,270,9.0,9.0,59,0.00,,,0.00,meteohub,2013-02-12 09:20:00,
2013-02-12 03:25:00,34.7,21.9,29.07,West,270,4.0,9.0,59,0.00,,,0.00,meteohub,2013-02-12 09:25:00,
2013-02-12 03:30:00,34.7,21.9,29.07,North,0,0.0,9.0,59,0.00,,,0.00,meteohub,2013-02-12 09:30:00,
2013-02-12 03:35:00,34.7,21.9,29.07,WSW,248,3.0,8.0,59,0.00,,,0.00,meteohub,2013-02-12 09:35:00,
2013-02-12 03:40:00,34.5,21.7,29.07,WNW,292,1.0,8.0,59,0.00,,,0.00,meteohub,2013-02-12 09:40:00,
2013-02-12 03:45:00,34.3,21.2,29.07,West,270,5.0,8.0,58,0.00,,,0.00,meteohub,2013-02-12 09:45:00,
2013-02-12 03:50:00,34.3,21.2,29.07,WSW,248,0.0,8.0,58,0.00,,,0.00,meteohub,2013-02-12 09:50:00,
2013-02-12 03:55:00,34.3,21.2,29.07,WNW,292,3.0,8.0,58,0.00,,,0.00,meteohub,2013-02-12 09:55:00,
2013-02-12 04:00:00,34.3,21.2,29.07,WNW,292,0.0,8.0,58,0.00,,,0.00,meteohub,2013-02-12 10:00:00,
2013-02-12 04:06:00,34.3,21.6,29.07,West,270,0.0,6.0,59,0.00,,,0.00,meteohub,2013-02-12 10:06:00,
2013-02-12 04:11:00,34.2,21.4,29.07,NW,315,1.0,4.0,59,0.00,,,0.00,meteohub,2013-02-12 10:11:00,
2013-02-12 04:16:00,34.2,21.4,29.07,NW,315,3.0,4.0,59,0.00,,,0.00,meteohub,2013-02-12 10:16:00,
2013-02-12 04:21:00,34.2,21.4,29.07,NW,315,5.0,6.0,59,0.00,,,0.00,meteohub,2013-02-12 10:21:00,
2013-02-12 04:26:00,34.2,21.7,29.07,West,270,3.0,6.0,60,0.00,,,0.00,meteohub,2013-02-12 10:26:00,
2013-02-12 04:31:00,34.2,21.4,29.07,SSW,202,0.0,6.0,59,0.00,,,0.00,meteohub,2013-02-12 10:31:00,
2013-02-12 04:36:00,34.0,21.2,29.07,West,270,2.0,6.0,59,0.00,,,0.00,meteohub,2013-02-12 10:36:00,
2013-02-12 04:41:00,34.0,21.2,29.10,NW,315,0.0,9.0,59,0.00,,,0.00,meteohub,2013-02-12 10:41:00,
2013-02-12 04:46:00,34.0,20.8,29.10,NW,315,1.0,9.0,58,0.00,,,0.00,meteohub,2013-02-12 10:46:00,
2013-02-12 04:51:00,33.8,20.7,29.10,WSW,248,0.0,9.0,58,0.00,,,0.00,meteohub,2013-02-12 10:51:00,
2013-02-12 04:56:00,33.8,20.7,29.10,West,270,3.0,6.0,58,0.00,,,0.00,meteohub,2013-02-12 10:56:00,
2013-02-12 05:02:00,33.8,20.7,29.10,WSW,248,0.0,6.0,58,0.00,,,0.00,meteohub,2013-02-12 11:02:00,
2013-02-12 05:07:00,33.8,21.0,29.10,SSW,202,0.0,5.0,59,0.00,,,0.00,meteohub,2013-02-12 11:07:00,
2013-02-12 05:12:00,33.8,21.0,29.10,NW,315,0.0,6.0,59,0.00,,,0.00,meteohub,2013-02-12 11:12:00,
2013-02-12 05:17:00,33.8,21.0,29.10,West,270,1.0,6.0,59,0.00,,,0.00,meteohub,2013-02-12 11:17:00,
2013-02-12 05:22:00,33.6,20.8,29.10,West,270,0.0,6.0,59,0.00,,,0.00,meteohub,2013-02-12 11:22:00,
2013-02-12 05:27:00,33.6,20.8,29.07,NW,315,4.0,6.0,59,0.00,,,0.00,meteohub,2013-02-12 11:27:00,
2013-02-12 05:32:00,33.6,20.8,29.07,West,270,0.0,6.0,59,0.00,,,0.00,meteohub,2013-02-12 11:32:00,
2013-02-12 05:37:00,33.6,20.8,29.07,SSW,202,0.0,5.0,59,0.00,,,0.00,meteohub,2013-02-12 11:37:00,
2013-02-12 05:42:00,33.6,20.8,29.07,WNW,292,0.0,5.0,59,0.00,,,0.00,meteohub,2013-02-12 11:42:00,
2013-02-12 05:47:00,33.6,21.2,29.07,SW,225,4.0,5.0,60,0.00,,,0.00,meteohub,2013-02-12 11:47:00,
2013-02-12 05:52:00,33.6,21.2,29.07,WSW,248,1.0,4.0,60,0.00,,,0.00,meteohub,2013-02-12 11:52:00,
2013-02-12 05:57:00,33.6,21.2,29.10,West,270,2.0,4.0,60,0.00,,,0.00,meteohub,2013-02-12 11:57:00,
2013-02-12 06:02:00,33.6,21.2,29.10,WSW,248,0.0,4.0,60,0.00,,,0.00,meteohub,2013-02-12 12:02:00,
2013-02-12 06:07:00,33.6,21.2,29.10,WSW,248,0.0,4.0,60,0.00,,,0.00,meteohub,2013-02-12 12:07:00,
2013-02-12 06:12:00,33.6,21.2,29.10,SSW,202,0.0,4.0,60,0.00,,,0.00,meteohub,2013-02-12 12:12:00,
2013-02-12 06:17:00,33.6,21.2,29.10,West,270,0.0,6.0,60,0.00,,,0.00,meteohub,2013-02-12 12:17:00,
2013-02-12 06:22:00,33.6,21.2,29.10,West,270,0.0,6.0,60,0.00,,,0.00,meteohub,2013-02-12 12:22:00,
2013-02-12 06:27:00,33.6,21.2,29.10,WNW,292,3.0,5.0,60,0.00,,,0.00,meteohub,2013-02-12 12:27:00,
2013-02-12 06:32:00,33.6,21.2,29.10,WSW,248,0.0,5.0,60,0.00,,,0.00,meteohub,2013-02-12 12:32:00,
2013-02-12 06:37:00,33.6,21.6,29.10,WSW,248,0.0,4.0,61,0.00,,,0.00,meteohub,2013-02-12 12:37:00,
2013-02-12 06:42:00,33.6,21.6,29.10,WNW,292,4.0,4.0,61,0.00,,,0.00,meteohub,2013-02-12 12:42:00,
2013-02-12 06:47:00,33.6,21.6,29.10,WSW,248,0.0,4.0,61,0.00,,,0.00,meteohub,2013-02-12 12:47:00,
2013-02-12 06:53:00,33.8,21.7,29.13,SW,225,0.0,4.0,61,0.00,,,0.00,meteohub,2013-02-12 12:53:00,
2013-02-12 06:58:00,33.8,21.7,29.13,SW,225,0.0,4.0,61,0.00,,,0.00,meteohub,2013-02-12 12:58:00,
2013-02-12 07:03:00,33.8,22.3,29.13,South,180,0.0,3.0,62,0.00,,,0.00,meteohub,2013-02-12 13:03:00,
2013-02-12 07:08:00,33.8,22.3,29.13,West,270,4.0,4.0,62,0.00,,,0.00,meteohub,2013-02-12 13:08:00,
2013-02-12 07:13:00,33.8,22.3,29.13,NW,315,0.0,5.0,62,0.00,,,0.00,meteohub,2013-02-12 13:13:00,
2013-02-12 07:18:00,34.0,22.3,29.13,West,270,1.0,5.0,62,0.00,,,0.00,meteohub,2013-02-12 13:18:00,
2013-02-12 07:23:00,34.0,22.3,29.13,SW,225,0.0,5.0,62,0.00,,,0.00,meteohub,2013-02-12 13:23:00,
2013-02-12 07:28:00,34.0,22.3,29.13,WNW,292,0.0,3.0,62,0.00,,,0.00,meteohub,2013-02-12 13:28:00,
2013-02-12 07:33:00,34.0,22.3,29.13,WSW,248,0.0,4.0,62,0.00,,,0.00,meteohub,2013-02-12 13:33:00,
2013-02-12 07:39:00,34.2,22.1,29.13,WSW,248,1.0,4.0,61,0.00,,,0.00,meteohub,2013-02-12 13:39:00,
2013-02-12 07:44:00,34.2,21.7,29.13,West,270,0.0,4.0,60,0.00,,,0.00,meteohub,2013-02-12 13:44:00,
2013-02-12 07:49:00,34.3,21.9,29.13,SSW,202,0.0,4.0,60,0.00,,,0.00,meteohub,2013-02-12 13:49:00,
2013-02-12 07:54:00,34.3,21.9,29.13,SSW,202,4.0,4.0,60,0.00,,,0.00,meteohub,2013-02-12 13:54:00,
2013-02-12 07:59:00,34.5,21.7,29.13,WSW,248,1.0,4.0,59,0.00,,,0.00,meteohub,2013-02-12 13:59:00,
2013-02-12 08:04:00,34.5,21.7,29.13,WSW,248,0.0,6.0,59,0.00,,,0.00,meteohub,2013-02-12 14:04:00,
2013-02-12 08:09:00,34.5,21.7,29.13,WNW,292,2.0,6.0,59,0.00,,,0.00,meteohub,2013-02-12 14:09:00,
2013-02-12 08:14:00,35.1,22.3,29.13,South,180,0.0,6.0,59,0.00,,,0.00,meteohub,2013-02-12 14:14:00,
2013-02-12 08:19:00,35.2,22.5,29.13,West,270,2.0,4.0,59,0.00,,,0.00,meteohub,2013-02-12 14:19:00,
2013-02-12 08:24:00,35.2,21.6,29.10,NNW,338,2.0,5.0,57,0.00,,,0.00,meteohub,2013-02-12 14:24:00,
2013-02-12 08:29:00,35.2,21.6,29.10,West,270,1.0,6.0,57,0.00,,,0.00,meteohub,2013-02-12 14:29:00,
2013-02-12 08:35:00,35.1,20.5,29.10,SW,225,0.0,6.0,55,0.00,,,0.00,meteohub,2013-02-12 14:35:00,
2013-02-12 08:40:00,35.2,21.2,29.13,NNW,338,2.0,6.0,56,0.00,,,0.00,meteohub,2013-02-12 14:40:00,
2013-02-12 08:45:00,35.2,21.2,29.13,WSW,248,0.0,6.0,56,0.00,,,0.00,meteohub,2013-02-12 14:45:00,
2013-02-12 08:50:00,35.4,21.4,29.13,WSW,248,0.0,6.0,56,0.00,,,0.00,meteohub,2013-02-12 14:50:00,
2013-02-12 08:55:00,35.8,21.7,29.13,SW,225,1.0,6.0,56,0.00,,,0.00,meteohub,2013-02-12 14:55:00,
2013-02-12 09:00:00,36.0,21.9,29.13,SSW,202,2.0,5.0,56,0.00,,,0.00,meteohub,2013-02-12 15:00:00,
2013-02-12 09:05:00,36.1,21.9,29.13,WNW,292,0.0,5.0,56,0.00,,,0.00,meteohub,2013-02-12 15:05:00,
2013-02-12 09:10:00,36.3,22.1,29.13,WSW,248,6.0,6.0,56,0.00,,,0.00,meteohub,2013-02-12 15:10:00,
2013-02-12 09:15:00,36.7,23.0,29.13,SSW,202,2.0,6.0,57,0.00,,,0.00,meteohub,2013-02-12 15:15:00,
2013-02-12 09:20:00,37.0,23.2,29.13,SSW,202,3.0,6.0,57,0.00,,,0.00,meteohub,2013-02-12 15:20:00,
2013-02-12 09:26:00,37.2,23.0,29.13,SSW,202,4.0,6.0,56,0.00,,,0.00,meteohub,2013-02-12 15:26:00,
2013-02-12 09:31:00,37.6,23.0,29.13,SSE,158,3.0,6.0,55,0.00,,,0.00,meteohub,2013-02-12 15:31:00,
2013-02-12 09:36:00,37.8,23.0,29.13,NW,315,5.0,6.0,55,0.00,,,0.00,meteohub,2013-02-12 15:36:00,
2013-02-12 09:41:00,37.6,22.1,29.13,South,180,3.0,6.0,53,0.00,,,0.00,meteohub,2013-02-12 15:41:00,
2013-02-12 09:46:00,37.2,21.2,29.13,West,270,0.0,6.0,52,0.00,,,0.00,meteohub,2013-02-12 15:46:00,
2013-02-12 09:51:00,37.4,21.4,29.13,SE,135,0.0,6.0,52,0.00,,,0.00,meteohub,2013-02-12 15:51:00,
2013-02-12 09:56:00,37.6,22.1,29.13,SSW,202,2.0,6.0,53,0.00,,,0.00,meteohub,2013-02-12 15:56:00,
2013-02-12 10:01:00,37.4,21.4,29.13,SSW,202,3.0,5.0,52,0.00,,,0.00,meteohub,2013-02-12 16:01:00,
2013-02-12 10:06:00,37.6,22.1,29.13,South,180,0.0,5.0,53,0.00,,,0.00,meteohub,2013-02-12 16:06:00,
2013-02-12 10:11:00,37.9,22.5,29.13,WSW,248,0.0,5.0,53,0.00,,,0.00,meteohub,2013-02-12 16:11:00,
2013-02-12 10:17:00,38.7,23.0,29.13,South,180,0.0,5.0,53,0.00,,,0.00,meteohub,2013-02-12 16:17:00,
2013-02-12 10:22:00,38.8,23.2,29.07,WNW,292,0.0,6.0,53,0.00,,,0.00,meteohub,2013-02-12 16:22:00,
2013-02-12 10:27:00,38.8,22.8,29.07,West,270,0.0,6.0,52,0.00,,,0.00,meteohub,2013-02-12 16:27:00,
2013-02-12 10:32:00,38.7,22.1,29.07,WNW,292,0.0,6.0,51,0.00,,,0.00,meteohub,2013-02-12 16:32:00,
2013-02-12 10:37:00,38.7,22.6,29.07,South,180,2.0,4.0,52,0.00,,,0.00,meteohub,2013-02-12 16:37:00,
2013-02-12 10:43:00,39.2,22.6,29.10,SE,135,0.0,5.0,51,0.00,,,0.00,meteohub,2013-02-12 16:43:00,
2013-02-12 10:48:00,39.2,22.6,29.10,SSW,202,0.0,5.0,51,0.00,,,0.00,meteohub,2013-02-12 16:48:00,
2013-02-12 10:53:00,39.4,22.8,29.10,SSW,202,6.0,6.0,51,0.00,,,0.00,meteohub,2013-02-12 16:53:00,
2013-02-12 10:58:00,39.7,23.2,29.10,SSW,202,4.0,4.0,51,0.00,,,0.00,meteohub,2013-02-12 16:58:00,
2013-02-12 11:03:00,40.3,24.1,29.10,South,180,3.0,6.0,52,0.00,,,0.00,meteohub,2013-02-12 17:03:00,
2013-02-12 11:08:00,40.5,24.3,29.13,SW,225,1.0,6.0,52,0.00,,,0.00,meteohub,2013-02-12 17:08:00,
2013-02-12 11:13:00,40.5,24.3,29.13,SSW,202,4.0,6.0,52,0.00,,,0.00,meteohub,2013-02-12 17:13:00,
2013-02-12 11:18:00,40.8,24.1,29.13,SSE,158,7.0,7.0,51,0.00,,,0.00,meteohub,2013-02-12 17:18:00,
2013-02-12 11:23:00,40.8,24.1,29.10,SW,225,4.0,9.0,51,0.00,,,0.00,meteohub,2013-02-12 17:23:00,
2013-02-12 11:29:00,40.8,24.1,29.10,South,180,3.0,9.0,51,0.00,,,0.00,meteohub,2013-02-12 17:29:00,
2013-02-12 11:34:00,41.0,23.9,29.10,WNW,292,0.0,7.0,50,0.00,,,0.00,meteohub,2013-02-12 17:34:00,
2013-02-12 11:39:00,41.2,24.1,29.10,WSW,248,0.0,6.0,50,0.00,,,0.00,meteohub,2013-02-12 17:39:00,
2013-02-12 11:44:00,41.2,24.1,29.10,South,180,1.0,6.0,50,0.00,,,0.00,meteohub,2013-02-12 17:44:00,
2013-02-12 11:49:00,41.5,24.3,29.10,SSW,202,1.0,6.0,50,0.00,,,0.00,meteohub,2013-02-12 17:49:00,
2013-02-12 11:54:00,41.5,24.3,29.07,SW,225,6.0,6.0,50,0.00,,,0.00,meteohub,2013-02-12 17:54:00,
2013-02-12 11:59:00,41.5,24.3,29.07,SW,225,4.0,6.0,50,0.00,,,0.00,meteohub,2013-02-12 17:59:00,
2013-02-12 12:04:00,41.7,24.4,29.07,West,270,0.0,8.0,50,0.00,,,0.00,meteohub,2013-02-12 18:04:00,
2013-02-12 12:09:00,42.1,24.8,29.01,SSW,202,3.0,8.0,50,0.00,,,0.00,meteohub,2013-02-12 18:09:00,
2013-02-12 12:14:00,42.3,24.4,29.01,SW,225,0.0,6.0,49,0.00,,,0.00,meteohub,2013-02-12 18:14:00,
2013-02-12 12:19:00,42.3,24.4,29.01,SSW,202,3.0,6.0,49,0.00,,,0.00,meteohub,2013-02-12 18:19:00,
2013-02-12 12:25:00,42.4,24.6,29.01,West,270,0.0,4.0,49,0.00,,,0.00,meteohub,2013-02-12 18:25:00,
2013-02-12 12:30:00,42.4,24.3,29.01,NNW,338,0.0,4.0,48,0.00,,,0.00,meteohub,2013-02-12 18:30:00,
2013-02-12 12:35:00,42.6,24.3,29.01,SSW,202,0.0,3.0,48,0.00,,,0.00,meteohub,2013-02-12 18:35:00,
2013-02-12 12:40:00,42.8,24.4,29.01,South,180,5.0,5.0,48,0.00,,,0.00,meteohub,2013-02-12 18:40:00,
2013-02-12 12:45:00,43.5,25.7,29.01,South,180,3.0,5.0,49,0.00,,,0.00,meteohub,2013-02-12 18:45:00,
2013-02-12 12:50:00,43.5,25.2,29.01,South,180,0.0,5.0,48,0.00,,,0.00,meteohub,2013-02-12 18:50:00,
2013-02-12 12:55:00,43.5,25.2,28.98,WNW,292,0.0,5.0,48,0.00,,,0.00,meteohub,2013-02-12 18:55:00,
2013-02-12 13:00:00,43.3,24.1,28.98,WNW,292,0.0,4.0,46,0.00,,,0.00,meteohub,2013-02-12 19:00:00,
2013-02-12 13:05:00,43.9,25.0,28.98,SW,225,1.0,4.0,47,0.00,,,0.00,meteohub,2013-02-12 19:05:00,
2013-02-12 13:11:00,44.1,24.6,29.01,SSW,202,2.0,6.0,46,0.00,,,0.00,meteohub,2013-02-12 19:11:00,
2013-02-12 13:16:00,44.6,25.7,29.01,SSW,202,4.0,6.0,47,0.00,,,0.00,meteohub,2013-02-12 19:16:00,
2013-02-12 13:21:00,44.8,25.9,29.01,WSW,248,2.0,6.0,47,0.00,,,0.00,meteohub,2013-02-12 19:21:00,
2013-02-12 13:26:00,45.1,26.2,29.01,South,180,1.0,5.0,47,0.00,,,0.00,meteohub,2013-02-12 19:26:00,
2013-02-12 13:31:00,45.3,26.2,29.01,SSW,202,3.0,5.0,47,0.00,,,0.00,meteohub,2013-02-12 19:31:00,
2013-02-12 13:36:00,45.3,26.2,29.01,SW,225,3.0,5.0,47,0.00,,,0.00,meteohub,2013-02-12 19:36:00,
2013-02-12 13:41:00,45.3,25.3,29.01,SSW,202,5.0,9.0,45,0.00,,,0.00,meteohub,2013-02-12 19:41:00,
2013-02-12 13:46:00,45.5,25.5,29.01,South,180,6.0,9.0,45,0.00,,,0.00,meteohub,2013-02-12 19:46:00,
2013-02-12 13:51:00,45.5,25.5,29.01,South,180,8.0,9.0,45,0.00,,,0.00,meteohub,2013-02-12 19:51:00,
2013-02-12 13:56:00,45.5,25.5,29.01,SSW,202,2.0,9.0,45,0.00,,,0.00,meteohub,2013-02-12 19:56:00,
2013-02-12 14:02:00,45.5,25.0,29.01,SSW,202,4.0,9.0,44,0.00,,,0.00,meteohub,2013-02-12 20:02:00,
2013-02-12 14:07:00,45.7,25.5,29.01,SSW,202,4.0,9.0,45,0.00,,,0.00,meteohub,2013-02-12 20:07:00,
2013-02-12 14:12:00,45.7,24.4,29.01,SW,225,0.0,7.0,43,0.00,,,0.00,meteohub,2013-02-12 20:12:00,
2013-02-12 14:17:00,45.9,25.2,29.01,SW,225,0.0,7.0,44,0.00,,,0.00,meteohub,2013-02-12 20:17:00,
2013-02-12 14:22:00,45.9,24.6,29.01,SW,225,8.0,8.0,43,0.00,,,0.00,meteohub,2013-02-12 20:22:00,
2013-02-12 14:27:00,46.0,25.3,29.01,South,180,6.0,9.0,44,0.00,,,0.00,meteohub,2013-02-12 20:27:00,
2013-02-12 14:32:00,46.2,25.0,29.01,WSW,248,3.0,9.0,43,0.00,,,0.00,meteohub,2013-02-12 20:32:00,
2013-02-12 14:37:00,46.0,24.3,29.01,South,180,7.0,10.0,42,0.00,,,0.00,meteohub,2013-02-12 20:37:00,
2013-02-12 14:42:00,46.0,24.3,29.01,SSW,202,4.0,10.0,42,0.00,,,0.00,meteohub,2013-02-12 20:42:00,
2013-02-12 14:47:00,46.0,24.3,29.01,WSW,248,3.0,10.0,42,0.00,,,0.00,meteohub,2013-02-12 20:47:00,
2013-02-12 14:52:00,46.0,24.8,29.01,SSW,202,3.0,7.0,43,0.00,,,0.00,meteohub,2013-02-12 20:52:00,
2013-02-12 14:57:00,46.0,23.7,29.01,SSW,202,3.0,11.0,41,0.00,,,0.00,meteohub,2013-02-12 20:57:00,
2013-02-12 15:02:00,46.2,24.4,29.01,SSW,202,3.0,11.0,42,0.00,,,0.00,meteohub,2013-02-12 21:02:00,
2013-02-12 15:07:00,46.2,24.4,29.01,SSW,202,1.0,11.0,42,0.00,,,0.00,meteohub,2013-02-12 21:07:00,
2013-02-12 15:12:00,46.2,23.9,29.01,South,180,4.0,7.0,41,0.00,,,0.00,meteohub,2013-02-12 21:12:00,
2013-02-12 15:17:00,46.2,23.9,29.01,SSW,202,1.0,7.0,41,0.00,,,0.00,meteohub,2013-02-12 21:17:00,
2013-02-12 15:22:00,46.0,23.7,29.01,SW,225,0.0,6.0,41,0.00,,,0.00,meteohub,2013-02-12 21:22:00,
2013-02-12 15:27:00,46.2,23.9,29.01,SW,225,4.0,6.0,41,0.00,,,0.00,meteohub,2013-02-12 21:27:00,
2013-02-12 15:32:00,46.2,24.4,29.01,South,180,1.0,6.0,42,0.00,,,0.00,meteohub,2013-02-12 21:32:00,
2013-02-12 15:37:00,46.4,23.4,29.01,SSW,202,4.0,8.0,40,0.00,,,0.00,meteohub,2013-02-12 21:37:00,
2013-02-12 15:42:00,46.4,24.1,29.01,SW,225,2.0,9.0,41,0.00,,,0.00,meteohub,2013-02-12 21:42:00,
2013-02-12 15:47:00,46.4,24.1,29.01,SSW,202,4.0,9.0,41,0.00,,,0.00,meteohub,2013-02-12 21:47:00,
2013-02-12 15:52:00,46.2,23.9,29.01,SSW,202,3.0,9.0,41,0.00,,,0.00,meteohub,2013-02-12 21:52:00,
2013-02-12 15:57:00,46.2,23.9,29.01,South,180,3.0,9.0,41,0.00,,,0.00,meteohub,2013-02-12 21:57:00,
2013-02-12 16:02:00,46.0,23.7,29.01,SSW,202,7.0,9.0,41,0.00,,,0.00,meteohub,2013-02-12 22:02:00,
2013-02-12 16:07:00,46.0,23.7,29.01,SSW,202,2.0,7.0,41,0.00,,,0.00,meteohub,2013-02-12 22:07:00,
2013-02-12 16:12:00,45.9,23.5,29.01,SW,225,3.0,7.0,41,0.00,,,0.00,meteohub,2013-02-12 22:12:00,
2013-02-12 16:17:00,45.7,23.4,29.01,SSW,202,8.0,8.0,41,0.00,,,0.00,meteohub,2013-02-12 22:17:00,
2013-02-12 16:22:00,45.5,22.6,29.01,SSW,202,0.0,11.0,40,0.00,,,0.00,meteohub,2013-02-12 22:22:00,
2013-02-12 16:27:00,45.3,22.5,28.98,SW,225,6.0,11.0,40,0.00,,,0.00,meteohub,2013-02-12 22:27:00,
2013-02-12 16:33:00,45.1,22.3,28.98,SW,225,1.0,11.0,40,0.00,,,0.00,meteohub,2013-02-12 22:33:00,
2013-02-12 16:38:00,45.0,22.1,28.98,SSW,202,0.0,6.0,40,0.00,,,0.00,meteohub,2013-02-12 22:38:00,
2013-02-12 16:43:00,44.8,22.6,28.98,SSW,202,2.0,6.0,41,0.00,,,0.00,meteohub,2013-02-12 22:43:00,
2013-02-12 16:48:00,44.4,22.3,28.98,SW,225,0.0,5.0,41,0.00,,,0.00,meteohub,2013-02-12 22:48:00,
2013-02-12 16:53:00,44.4,22.3,28.98,SW,225,0.0,5.0,41,0.00,,,0.00,meteohub,2013-02-12 22:53:00,
2013-02-12 16:58:00,44.1,21.9,28.98,SW,225,0.0,4.0,41,0.00,,,0.00,meteohub,2013-02-12 22:58:00,
2013-02-12 17:03:00,43.9,22.3,28.98,SW,225,0.0,4.0,42,0.00,,,0.00,meteohub,2013-02-12 23:03:00,
2013-02-12 17:08:00,43.5,21.9,28.98,SW,225,0.0,4.0,42,0.00,,,0.00,meteohub,2013-02-12 23:08:00,
2013-02-12 17:13:00,43.3,21.9,28.98,South,180,0.0,3.0,42,0.00,,,0.00,meteohub,2013-02-12 23:13:00,
2013-02-12 17:18:00,43.3,21.9,28.98,SSW,202,0.0,3.0,42,0.00,,,0.00,meteohub,2013-02-12 23:18:00,
2013-02-12 17:24:00,43.0,22.1,29.01,SSW,202,0.0,3.0,43,0.00,,,0.00,meteohub,2013-02-12 23:24:00,
2013-02-12 17:29:00,42.8,21.9,29.01,South,180,0.0,3.0,43,0.00,,,0.00,meteohub,2013-02-12 23:29:00,
2013-02-12 17:34:00,42.4,22.1,29.01,SW,225,4.0,4.0,44,0.00,,,0.00,meteohub,2013-02-12 23:34:00,
2013-02-12 17:39:00,42.4,22.1,28.98,WSW,248,0.0,4.0,44,0.00,,,0.00,meteohub,2013-02-12 23:39:00,
2013-02-12 17:44:00,42.3,21.9,28.98,SW,225,0.0,4.0,44,0.00,,,0.00,meteohub,2013-02-12 23:44:00,
2013-02-12 17:49:00,42.1,21.7,28.98,SSW,202,0.0,4.0,44,0.00,,,0.00,meteohub,2013-02-12 23:49:00,
2013-02-12 17:54:00,41.7,21.4,28.95,SSW,202,0.0,3.0,44,0.00,,,0.00,meteohub,2013-02-12 23:54:00,
2013-02-12 17:59:00,41.5,21.4,28.95,SSW,202,0.0,3.0,44,0.00,,,0.00,meteohub,2013-02-12 23:59:00,
2013-02-12 18:04:00,41.2,21.0,28.95,WNW,292,0.0,3.0,44,0.00,,,0.00,meteohub,2013-02-13 00:04:00,
2013-02-12 18:10:00,41.0,20.8,28.98,WNW,292,0.0,2.0,44,0.00,,,0.00,meteohub,2013-02-13 00:10:00,
2013-02-12 18:15:00,40.8,21.2,28.98,West,270,0.0,2.0,45,0.00,,,0.00,meteohub,2013-02-13 00:15:00,
2013-02-12 18:20:00,40.6,21.0,28.98,SW,225,0.0,0.0,45,0.00,,,0.00,meteohub,2013-02-13 00:20:00,
2013-02-12 18:25:00,40.5,20.8,28.98,WNW,292,0.0,0.0,45,0.00,,,0.00,meteohub,2013-02-13 00:25:00,
2013-02-12 18:30:00,40.3,20.7,28.98,NW,315,0.0,0.0,45,0.00,,,0.00,meteohub,2013-02-13 00:30:00,
2013-02-12 18:35:00,40.1,21.0,28.98,North,0,0.0,0.0,46,0.00,,,0.00,meteohub,2013-02-13 00:35:00,
2013-02-12 18:40:00,39.9,20.8,28.95,North,0,0.0,0.0,46,0.00,,,0.00,meteohub,2013-02-13 00:40:00,
2013-02-12 18:45:00,39.6,20.5,28.95,North,0,0.0,0.0,46,0.00,,,0.00,meteohub,2013-02-13 00:45:00,
2013-02-12 18:50:00,39.2,20.7,28.95,North,0,0.0,0.0,47,0.00,,,0.00,meteohub,2013-02-13 00:50:00,
2013-02-12 18:55:00,38.8,20.3,28.95,North,0,0.0,0.0,47,0.00,,,0.00,meteohub,2013-02-13 00:55:00,
2013-02-12 19:00:00,38.7,20.7,28.95,NE,45,0.0,0.0,48,0.00,,,0.00,meteohub,2013-02-13 01:00:00,
2013-02-12 19:06:00,38.5,20.5,28.95,SE,135,0.0,0.0,48,0.00,,,0.00,meteohub,2013-02-13 01:06:00,
2013-02-12 19:11:00,38.1,20.7,28.95,SE,135,0.0,0.0,49,0.00,,,0.00,meteohub,2013-02-13 01:11:00,
2013-02-12 19:16:00,37.6,20.1,28.95,South,180,0.0,0.0,49,0.00,,,0.00,meteohub,2013-02-13 01:16:00,
2013-02-12 19:21:00,37.4,20.1,28.95,South,180,0.0,0.0,49,0.00,,,0.00,meteohub,2013-02-13 01:21:00,
2013-02-12 19:26:00,37.2,20.3,28.92,East,90,0.0,0.0,50,0.00,,,0.00,meteohub,2013-02-13 01:26:00,
2013-02-12 19:31:00,37.0,20.1,28.92,East,90,0.0,0.0,50,0.00,,,0.00,meteohub,2013-02-13 01:31:00,
2013-02-12 19:36:00,36.9,19.9,28.92,SSE,158,0.0,0.0,50,0.00,,,0.00,meteohub,2013-02-13 01:36:00,
2013-02-12 19:41:00,36.7,20.3,28.95,WSW,248,0.0,0.0,51,0.00,,,0.00,meteohub,2013-02-13 01:41:00,
2013-02-12 19:46:00,36.3,19.9,28.95,WSW,248,0.0,0.0,51,0.00,,,0.00,meteohub,2013-02-13 01:46:00,
2013-02-12 19:51:00,36.1,20.3,28.95,WSW,248,0.0,0.0,52,0.00,,,0.00,meteohub,2013-02-13 01:51:00,
2013-02-12 19:57:00,36.0,20.1,28.95,SW,225,0.0,0.0,52,0.00,,,0.00,meteohub,2013-02-13 01:57:00,
2013-02-12 20:02:00,35.8,19.9,28.95,SSW,202,0.0,0.0,52,0.00,,,0.00,meteohub,2013-02-13 02:02:00,
2013-02-12 20:07:00,35.6,19.8,28.95,SSW,202,0.0,0.0,52,0.00,,,0.00,meteohub,2013-02-13 02:07:00,
2013-02-12 20:12:00,35.4,20.1,28.95,SSW,202,0.0,0.0,53,0.00,,,0.00,meteohub,2013-02-13 02:12:00,
2013-02-12 20:17:00,35.4,20.1,28.95,South,180,0.0,0.0,53,0.00,,,0.00,meteohub,2013-02-13 02:17:00,
2013-02-12 20:22:00,35.1,20.1,28.95,South,180,0.0,0.0,54,0.00,,,0.00,meteohub,2013-02-13 02:22:00,
2013-02-12 20:27:00,35.1,20.1,28.95,South,180,0.0,0.0,54,0.00,,,0.00,meteohub,2013-02-13 02:27:00,
2013-02-12 20:32:00,34.9,20.5,28.95,SSW,202,0.0,0.0,55,0.00,,,0.00,meteohub,2013-02-13 02:32:00,
2013-02-12 20:37:00,34.5,20.1,28.95,ENE,68,0.0,0.0,55,0.00,,,0.00,meteohub,2013-02-13 02:37:00,
2013-02-12 20:42:00,34.3,20.3,28.95,NE,45,0.0,0.0,56,0.00,,,0.00,meteohub,2013-02-13 02:42:00,
2013-02-12 20:47:00,34.2,19.8,28.95,NE,45,0.0,0.0,55,0.00,,,0.00,meteohub,2013-02-13 02:47:00,
2013-02-12 20:52:00,34.0,19.9,28.95,NE,45,0.0,0.0,56,0.00,,,0.00,meteohub,2013-02-13 02:52:00,
2013-02-12 20:57:00,33.8,19.8,28.95,NE,45,0.0,0.0,56,0.00,,,0.00,meteohub,2013-02-13 02:57:00,
2013-02-12 21:02:00,33.6,20.1,28.95,NE,45,0.0,0.0,57,0.00,,,0.00,meteohub,2013-02-13 03:02:00,
2013-02-12 21:07:00,33.4,19.9,28.95,NE,45,0.0,0.0,57,0.00,,,0.00,meteohub,2013-02-13 03:07:00,
2013-02-12 21:12:00,33.4,19.9,28.92,NNE,22,0.0,0.0,57,0.00,,,0.00,meteohub,2013-02-13 03:12:00,
2013-02-12 21:17:00,33.3,20.1,28.92,North,0,0.0,0.0,58,0.00,,,0.00,meteohub,2013-02-13 03:17:00,
2013-02-12 21:22:00,33.1,19.9,28.92,North,0,0.0,0.0,58,0.00,,,0.00,meteohub,2013-02-13 03:22:00,
2013-02-12 21:27:00,33.1,20.3,28.92,North,0,0.0,0.0,59,0.00,,,0.00,meteohub,2013-02-13 03:27:00,
2013-02-12 21:32:00,32.9,20.1,28.92,North,0,0.0,0.0,59,0.00,,,0.00,meteohub,2013-02-13 03:32:00,
2013-02-12 21:37:00,32.7,19.6,28.92,SE,135,0.0,0.0,58,0.00,,,0.00,meteohub,2013-02-13 03:37:00,
2013-02-12 21:42:00,32.7,19.9,28.92,SSE,158,0.0,0.0,59,0.00,,,0.00,meteohub,2013-02-13 03:42:00,
2013-02-12 21:47:00,32.5,19.4,28.92,North,0,0.0,0.0,58,0.00,,,0.00,meteohub,2013-02-13 03:47:00,
2013-02-12 21:52:00,32.5,19.8,28.92,North,0,0.0,0.0,59,0.00,,,0.00,meteohub,2013-02-13 03:52:00,
2013-02-12 21:57:00,32.5,20.3,28.92,North,0,0.0,0.0,60,0.00,,,0.00,meteohub,2013-02-13 03:57:00,
2013-02-12 22:02:00,32.5,20.3,28.92,North,0,0.0,0.0,60,0.00,,,0.00,meteohub,2013-02-13 04:02:00,
2013-02-12 22:07:00,32.4,20.1,28.92,SSW,202,0.0,0.0,60,0.00,,,0.00,meteohub,2013-02-13 04:07:00,
2013-02-12 22:12:00,32.4,19.8,28.92,SSW,202,0.0,0.0,59,0.00,,,0.00,meteohub,2013-02-13 04:12:00,
2013-02-12 22:17:00,32.2,20.3,28.92,SSW,202,0.0,0.0,61,0.00,,,0.00,meteohub,2013-02-13 04:17:00,
2013-02-12 22:22:00,32.2,20.3,28.92,SSW,202,0.0,0.0,61,0.00,,,0.00,meteohub,2013-02-13 04:22:00,
2013-02-12 22:27:00,32.0,20.5,28.92,North,0,0.0,0.0,62,0.00,,,0.00,meteohub,2013-02-13 04:27:00,
2013-02-12 22:32:00,32.0,20.5,28.92,North,0,0.0,0.0,62,0.00,,,0.00,meteohub,2013-02-13 04:32:00,
2013-02-12 22:38:00,32.0,20.5,28.92,North,0,0.0,0.0,62,0.00,,,0.00,meteohub,2013-02-13 04:38:00,
2013-02-12 22:43:00,31.8,20.3,28.92,North,0,0.0,0.0,62,0.00,,,0.00,meteohub,2013-02-13 04:43:00,
2013-02-12 22:48:00,31.8,20.3,28.92,NE,45,0.0,0.0,62,0.00,,,0.00,meteohub,2013-02-13 04:48:00,
2013-02-12 22:53:00,31.8,20.7,28.92,North,0,0.0,0.0,63,0.00,,,0.00,meteohub,2013-02-13 04:53:00,
2013-02-12 22:58:00,31.8,20.7,28.92,North,0,0.0,0.0,63,0.00,,,0.00,meteohub,2013-02-13 04:58:00,
2013-02-12 23:00:00,31.8,20.7,28.92,North,0,0.0,0.0,63,0.00,,,0.00,meteohub,2013-02-13 05:00:00,
2013-02-12 23:01:00,31.8,20.7,28.92,North,0,0.0,0.0,63,0.00,,,0.00,meteohub,2013-02-13 05:01:00,
2013-02-12 23:02:00,31.6,20.5,28.92,North,0,0.0,0.0,63,0.00,,,0.00,meteohub,2013-02-13 05:02:00,
2013-02-12 23:05:00,31.6,20.5,28.92,North,0,0.0,0.0,63,0.00,,,0.00,meteohub,2013-02-13 05:05:00,
2013-02-12 23:10:00,31.6,20.5,28.92,ENE,68,0.0,0.0,63,0.00,,,0.00,meteohub,2013-02-13 05:10:00,
2013-02-12 23:15:00,31.5,20.7,28.92,NNE,22,0.0,0.0,64,0.00,,,0.00,meteohub,2013-02-13 05:15:00,
2013-02-12 23:20:00,31.5,20.7,28.92,NNE,22,0.0,0.0,64,0.00,,,0.00,meteohub,2013-02-13 05:20:00,
2013-02-12 23:25:00,31.3,20.8,28.92,NNE,22,0.0,0.0,65,0.00,,,0.00,meteohub,2013-02-13 05:25:00,
2013-02-12 23:30:00,31.1,20.3,28.92,North,0,0.0,0.0,64,0.00,,,0.00,meteohub,2013-02-13 05:30:00,
2013-02-12 23:35:00,31.3,20.8,28.92,NNE,22,0.0,0.0,65,0.00,,,0.00,meteohub,2013-02-13 05:35:00,
2013-02-12 23:40:00,31.3,20.8,28.89,East,90,0.0,0.0,65,0.00,,,0.00,meteohub,2013-02-13 05:40:00,
2013-02-12 23:45:00,31.1,20.7,28.89,SE,135,0.0,0.0,65,0.00,,,0.00,meteohub,2013-02-13 05:45:00,
2013-02-12 23:50:00,31.1,20.7,28.89,North,0,0.0,0.0,65,0.00,,,0.00,meteohub,2013-02-13 05:50:00,
2013-02-12 23:56:00,30.9,20.8,28.92,NNW,338,0.0,0.0,66,0.00,,,0.00,meteohub,2013-02-13 05:56:00,